Location: Windsor
(43.2292°N, 89.3015°W)
Time: 09:10:53
(UTC+00:00)

POLYITAN 1 - Visible Passes

Search period start: 29 June 2022 00:00
Search period end: 09 July 2022 00:00
Orbit: 586 x 606 km, 98.0° (Epoch: 28 June)

Date Brightness Start Highest point End Pass type
(mag) Time Alt. Az. Time Alt. Az. Time Alt. Az.
29 Jun ? 07:27:08 10° NNE 07:31:15 50° E 07:32:29 37° SSE visible
29 Jun ? 09:03:53 10° NNW 09:06:29 16° WNW 09:09:04 10° WSW visible
30 Jun ? 07:36:57 10° NNE 07:41:10 65° ESE 07:42:27 41° SSE visible
30 Jun ? 09:14:20 10° NW 09:16:15 13° WNW 09:18:10 10° W visible
01 Jul ? 07:46:48 10° NNE 07:51:04 84° ESE 07:52:26 42° S visible
01 Jul ? 09:25:23 10° NW 09:26:00 10° WNW 09:26:37 10° WNW visible
02 Jul ? 07:56:41 10° N 08:00:56 76° WNW 08:02:24 40° SSW visible
03 Jul ? 06:32:56 10° ENE 06:34:49 13° E 06:35:43 12° ESE visible
03 Jul ? 08:06:36 10° N 08:10:47 59° WNW 08:12:23 35° SW visible
04 Jul ? 06:42:07 10° NE 06:44:48 16° E 06:45:41 15° ESE visible
04 Jul ? 08:16:34 10° N 08:20:38 46° WNW 08:22:20 29° SW visible
05 Jul ? 06:51:34 10° NE 06:54:45 20° E 06:55:38 19° ESE visible
05 Jul ? 08:26:34 10° N 08:30:28 36° WNW 08:32:18 24° WSW visible
06 Jul ? 07:01:08 10° NE 07:04:42 26° E 07:05:36 24° ESE visible
06 Jul ? 08:36:37 10° N 08:40:16 29° WNW 08:42:15 20° WSW visible
07 Jul ? 07:10:47 10° NNE 07:14:38 32° E 07:15:33 29° ESE visible
07 Jul ? 08:46:41 10° NNW 08:50:04 23° WNW 08:52:13 16° WSW visible
08 Jul ? 07:20:30 10° NNE 07:24:32 41° E 07:25:30 36° SE visible
08 Jul ? 08:56:51 10° NNW 08:59:52 19° WNW 09:02:09 13° WSW visible
